Date String (YYYY-MM-DD hh:mm:ss) UTC,Instrument flags,Ambient pressure (hPa),Sample flow (lpm),Bypass flow (lpm),Sample temperature (°C),Ambient temperature (°C),ASC tube jacket temperature (°C),LED temperature (°C),Box temperature (°C),Sample RH (%),Span deviation,Mass concentration (μg/m³),Mass concentration (μg/m³),Mass concentration (μg/m³)
DateTimeUTC,F1_M11,P_M11,Q1_M11,Q2_M11,T1_M11,T2_M11,T3_M11,T4_M11,T5_M11,U1_M11,ZSPAN_M11,X0_M11,X2_M11,X1_M11
2023-02-11 14:00:00,,0826.5,5.03,0.00,21.7,20.1,00.0,30.7,23.3,08.3,0000.0,0004.83,0001.80,0001.45
2023-02-11 14:01:00,,0826.5,5.01,0.00,21.8,21.5,00.0,30.7,23.7,08.5,0000.0,0004.77,0001.74,0001.40
2023-02-11 14:02:00,,0826.5,4.98,0.00,21.9,22.7,00.0,30.7,24.0,08.7,0000.0,0005.15,0001.74,0001.42
2023-02-11 14:03:00,,0826.5,5.01,0.00,22.1,22.6,00.0,30.8,24.1,08.6,0000.0,0005.60,0001.67,0001.39
2023-02-11 14:04:00,,0826.5,5.00,0.00,22.1,22.0,00.0,30.8,24.0,08.8,0000.0,0006.31,0001.67,0001.39
2023-02-11 14:05:00,,0826.5,4.99,0.00,22.1,21.5,00.0,30.8,23.9,08.8,0000.0,0006.73,0001.76,0001.45
2023-02-11 14:06:00,,0826.5,4.98,0.00,22.1,21.2,00.0,30.9,23.8,08.9,0000.0,0006.66,0001.76,0001.43
2023-02-11 14:07:00,,0826.5,5.02,0.00,22.0,20.9,00.0,30.9,23.8,08.7,0000.0,0006.65,0001.79,0001.48
2023-02-11 14:08:00,,0826.5,4.99,0.00,22.0,20.7,00.0,30.9,23.8,08.8,0000.0,0007.37,0002.00,0001.64
2023-02-11 14:09:00,,0826.5,5.03,0.00,22.0,20.6,00.0,30.9,23.7,08.8,0000.0,0008.08,0002.34,0001.86
2023-02-11 14:10:00,,0826.5,4.95,0.00,22.0,20.4,00.0,30.9,23.6,08.8,0000.0,0008.67,0002.76,0002.13
2023-02-11 14:11:00,,0826.5,5.02,0.00,21.9,20.1,00.0,30.8,23.5,08.7,0000.0,0009.21,0003.09,0002.33
2023-02-11 14:12:00,,0826.5,5.00,0.00,21.8,19.9,00.0,30.8,23.3,09.0,0000.0,0009.64,0003.29,0002.52
2023-02-11 14:13:00,,0826.5,4.97,0.00,21.8,19.9,00.0,30.8,23.3,09.1,0000.0,0010.07,0003.41,0002.64
2023-02-11 14:14:00,,0826.5,5.02,0.00,21.8,21.1,00.0,30.8,23.6,08.8,0000.0,0009.91,0003.51,0002.76
2023-02-11 14:15:00,,0826.5,5.00,0.00,22.0,22.4,00.0,30.7,24.0,08.7,0000.0,0009.50,0003.52,0002.78
2023-02-11 14:16:00,,0826.5,5.01,0.00,22.1,22.8,00.0,30.8,24.1,08.6,0000.0,0009.40,0003.53,0002.77
2023-02-11 14:17:00,,0826.5,5.00,0.00,22.2,22.3,00.0,30.9,24.1,08.5,0000.0,0009.41,0003.55,0002.78
2023-02-11 14:18:00,,0826.4,4.98,0.00,22.2,21.7,00.0,30.9,24.0,08.5,0000.0,0009.22,0003.54,0002.75
2023-02-11 14:19:00,,0826.5,5.03,0.00,22.1,21.3,00.0,30.9,23.8,08.4,0000.0,0008.60,0003.47,0002.64
2023-02-11 14:20:00,,0826.5,4.95,0.00,22.1,20.9,00.0,30.9,23.7,08.5,0000.0,0007.97,0003.35,0002.48
2023-02-11 14:21:00,,0826.5,5.02,0.00,22.0,20.5,00.0,30.9,23.6,09.0,0000.0,0007.80,0003.20,0002.35
2023-02-11 14:22:00,,0826.5,4.97,0.00,22.0,20.3,00.0,30.9,23.5,08.7,0000.0,0007.78,0003.08,0002.28
2023-02-11 14:23:00,,0826.5,4.98,0.00,21.9,20.1,00.0,30.9,23.4,08.9,0000.0,0007.51,0002.91,0002.20
2023-02-11 14:24:00,,0826.5,5.01,0.00,21.9,19.9,00.0,30.9,23.4,08.8,0000.0,0006.67,0002.76,0002.12
2023-02-11 14:25:00,,0826.5,5.00,0.00,21.8,19.9,00.0,30.9,23.4,08.9,0000.0,0006.49,0002.67,0002.04
2023-02-11 14:26:00,,0826.5,4.99,0.00,21.8,19.7,00.0,30.8,23.3,09.0,0000.0,0006.55,0002.69,0002.03
2023-02-11 14:27:00,,0826.5,5.03,0.00,21.7,19.8,00.0,30.8,23.2,08.8,0000.0,0006.61,0002.69,0002.04
2023-02-11 14:28:00,,0826.5,4.94,0.00,21.8,21.3,00.0,30.7,23.6,08.7,0000.0,0007.19,0002.69,0002.04
2023-02-11 14:29:00,,0826.5,5.01,0.00,22.0,22.7,00.0,30.7,24.0,08.6,0000.0,0006.81,0002.67,0002.04
2023-02-11 14:30:00,,0826.5,5.02,0.00,22.1,22.9,00.0,30.8,24.1,08.5,0000.0,0006.46,0002.65,0002.05
2023-02-11 14:31:00,,0826.5,5.00,0.00,22.1,22.1,00.0,30.9,24.0,08.5,0000.0,0006.45,0002.68,0002.07
2023-02-11 14:32:00,,0826.5,4.93,0.00,22.1,21.6,00.0,30.9,23.9,08.7,0000.0,0005.82,0002.68,0002.04
2023-02-11 14:33:00,,0826.5,4.99,0.00,22.1,21.2,00.0,30.9,23.8,08.6,0000.0,0005.19,0002.65,0002.00
2023-02-11 14:34:00,,0826.5,5.01,0.00,22.0,20.8,00.0,30.9,23.7,08.7,0000.0,0005.13,0002.63,0001.98
2023-02-11 14:35:00,,0826.5,4.97,0.00,22.0,20.5,00.0,30.9,23.6,08.8,0000.0,0005.42,0002.62,0001.96
2023-02-11 14:36:00,,0826.5,4.98,0.00,21.9,20.3,00.0,30.9,23.5,08.9,0000.0,0005.67,0002.63,0001.97
2023-02-11 14:37:00,,0826.5,4.99,0.00,21.9,20.1,00.0,30.9,23.4,08.8,0000.0,0005.61,0002.59,0001.96
2023-02-11 14:38:00,,0826.5,5.00,0.00,21.8,19.9,00.0,30.9,23.3,08.7,0000.0,0005.32,0002.52,0001.92
2023-02-11 14:39:00,,0826.5,5.00,0.00,21.8,19.7,00.0,30.8,23.2,08.7,0000.0,0004.57,0002.42,0001.88
2023-02-11 14:40:00,,0826.5,5.00,0.00,21.7,19.7,00.0,30.8,23.1,08.7,0000.0,0004.50,0002.37,0001.85
2023-02-11 14:41:00,,0826.5,5.00,0.00,21.7,20.9,00.0,30.8,23.4,08.7,0000.0,0004.49,0002.36,0001.83
2023-02-11 14:42:00,,0826.5,4.98,0.00,21.9,22.4,00.0,30.8,23.8,08.5,0000.0,0004.82,0002.32,0001.81
2023-02-11 14:43:00,,0826.5,4.99,0.00,22.0,22.5,00.0,30.8,24.0,08.3,0000.0,0005.89,0002.26,0001.77
2023-02-11 14:44:00,,0826.4,5.02,0.00,22.0,21.9,00.0,30.8,23.9,08.2,0000.0,0005.81,0002.23,0001.74
2023-02-11 14:45:00,,0826.4,4.96,0.00,22.0,21.3,00.0,30.9,23.7,08.2,0000.0,0005.67,0002.17,0001.69
2023-02-11 14:46:00,,0826.4,4.98,0.00,22.0,20.9,00.0,30.9,23.7,08.3,0000.0,0005.16,0002.10,0001.65
2023-02-11 14:47:00,,0826.5,5.01,0.00,22.0,20.7,00.0,30.9,23.6,08.5,0000.0,0004.80,0002.03,0001.60
2023-02-11 14:48:00,,0826.5,5.03,0.00,21.9,20.5,00.0,30.9,23.6,09.0,0000.0,0004.71,0001.96,0001.56
2023-02-11 14:49:00,,0826.5,4.97,0.00,21.9,20.4,00.0,30.9,23.5,09.0,0000.0,0004.78,0001.95,0001.52
2023-02-11 14:50:00,,0826.5,5.00,0.00,21.9,20.3,00.0,30.9,23.5,08.9,0000.0,0005.00,0001.97,0001.51
2023-02-11 14:51:00,,0826.4,5.04,0.00,21.9,20.2,00.0,30.8,23.5,09.1,0000.0,0004.97,0001.97,0001.50
2023-02-11 14:52:00,,0826.4,5.01,0.00,21.9,20.2,00.0,30.8,23.5,09.1,0000.0,0004.98,0001.97,0001.49
2023-02-11 14:53:00,,0826.4,4.99,0.00,21.9,20.2,00.0,30.8,23.5,09.6,0000.0,0004.73,0001.97,0001.49
2023-02-11 14:54:00,,0826.5,5.01,0.00,21.9,20.2,00.0,30.8,23.5,09.4,0000.0,0003.35,0001.94,0001.49
2023-02-11 14:55:00,,0826.5,4.98,0.00,21.9,20.2,00.0,30.8,23.5,09.2,0000.0,0003.35,0001.97,0001.52
2023-02-11 14:56:00,,0826.5,5.00,0.00,21.8,20.2,00.0,30.8,23.5,09.4,0000.0,0004.03,0002.01,0001.55
2023-02-11 14:57:00,,0826.5,5.00,0.00,21.8,20.2,00.0,30.8,23.5,09.5,0000.0,0004.25,0002.06,0001.57
2023-02-11 14:58:00,,0826.5,4.98,0.00,21.9,21.4,00.0,30.8,23.7,09.5,0000.0,0004.32,0002.08,0001.58
2023-02-11 14:59:00,,0826.5,5.05,0.00,22.0,23.0,00.0,30.8,24.1,09.5,0000.0,0004.36,0002.11,0001.60
